Regional Weather Roundup
Issued by NWS Wakefield, VA

Home | Current Version | Previous Version | Graphics & Text | Print | Product List | Glossary On
Versions: 1 2 3 4 5 6 7 8 9 10 11 12 13 14 15 16 17 18 19 20 21 22 23 24 25 26 27 28 29 30 31 32 33 34 35 36 37 38 39 40 41 42 43 44 45 46 47 48 49 50
000
ASUS41 KAKQ 210810
RWRAKQ

REGIONAL WEATHER ROUNDUP
NATIONAL WEATHER SERVICE WAKEFIELD VA
300 AM EST SUN DEC 21 2014

Note: "fair" indicates few or no clouds below 12,000 feet with no
significant weather and/or obstructions to visibility. * = Denotes
station may not report precipitation (e.g., rain,snow,etc.),
thunder or fog.

VAZ042-051-052>054-056-210900-
NORTHERN VIRGINIA

CITY           SKY/WX    TMP DP  RH WIND       PRES   REMARKS
WASH NATIONAL  CLOUDY    37  24  59 CALM      30.33R
DULLES         CLOUDY    31  26  82 CALM      30.30S
FORT BELVOIR   CLOUDY    32  26  80 CALM      30.32S
QUANTICO       CLOUDY    33  26  75 NW3       30.33S
FREDERICKSBRG* CLOUDY    34  28  79 CALM      30.30S
STAFFORD*      CLOUDY    32  28  84 CALM      30.35S
WARRENTON      CLOUDY    33  31  92 CALM      30.30S
CULPEPER*      CLOUDY    34  30  86 CALM      30.30S
MANASSAS*      CLOUDY    32  30  93 CALM      30.31S
LEESBURG*      CLOUDY    32  28  86 CALM      30.31S
WINCHESTER     CLOUDY    32  21  64 CALM      30.28R
FRONT ROYAL*   CLOUDY    32  25  74 CALM      30.26F
LURAY*         CLOUDY    32  28  86 CALM      30.26S
$$

VAZ048-049-060>072-079>083-210900-
CENTRAL AND SOUTH CENTRAL VIRGINIA

CITY           SKY/WX    TMP DP  RH WIND       PRES   REMARKS
RICHMOND       CLOUDY    36  25  64 CALM      30.30R
CHESTERFIELD*  CLOUDY    36  18  48 CALM      30.31R
PETERSBURG*    CLOUDY    35  31  86 CALM      30.31R
HANOVER        CLOUDY    33  27  78 CALM      30.31S
TAPPAHANNOCK*  CLOUDY    33  27  79 CALM      30.31R
QUINTON*       CLOUDY    34  27  77 MISG      30.30R
CHARLOTTSVILLE CLOUDY    33  26  75 CALM      30.28R
GORDONSVILLE*  CLOUDY    32  28  86 CALM      30.29R
ORANGE*        CLOUDY    32  30  93 CALM      30.30S
LOUISA*        CLOUDY    34  28  80 CALM      30.28R
BUMPASS*       CLOUDY    32  26  77 CALM      30.29S
FARMVILLE*     CLOUDY    36  27  70 CALM      30.28R
CREWE*         CLOUDY    34  30  86 CALM      30.28R
FORT PICKETT*  CLOUDY    34  27  75 CALM      30.28S
CHASE CITY*    CLOUDY    37  36  93 CALM      30.28S
CLARKSVILLE*   CLOUDY    36  32  87 CALM      30.28R
SOUTH HILL*    CLOUDY    33  32  96 CALM      30.34R
LAWRENCEVILLE* CLOUDY    34  30  85 CALM      30.29R
EMPORIA*       CLOUDY    32  30  93 CALM      30.32R
$$

VAZ088>098-210900-
SOUTHEAST VIRGINIA

CITY           SKY/WX    TMP DP  RH WIND       PRES   REMARKS
NORFOLK        CLEAR     30  27  88 CALM      30.29S
VIRGINIA BEACH CLEAR     30  27  88 CALM      30.29S
NORFOLK NAVAL  CLEAR     37  27  67 N6        30.31S
WEST POINT*    CLOUDY    36  29  76 CALM      30.32S
SALUDA*        CLOUDY    35  26  70 N3        30.30R
NEWPORT NEWS   MOCLDY    30  26  85 CALM      30.30S
LANGLEY AFB    CLEAR     29  26  91 W2        30.31S
FORT EUSTIS    CLOUDY    31  28  90 CALM      30.29S
WILLIAMSBURG*  CLOUDY    36  30  80 CALM      30.31R
HR EXEC AP*    SUNNY     25  21  86 CALM      30.31F
FRANKLIN*      CLOUDY    30  30 100 CALM      30.30R
WAKEFIELD      CLOUDY    31  28  89 CALM      30.30S
$$

VAZ020-022-025-037-045-210900-
WEST CENTRAL AND SOUTHWEST VIRGINIA

CITY           SKY/WX    TMP DP  RH WIND       PRES   REMARKS
STAUNTON*      CLOUDY    32  26  80 CALM      30.26R
WAYNESBORO*    CLOUDY    31  26  80 CALM      30.23R
HOT SPRINGS VA CLOUDY    29  29 100 W10       30.11R WCI  20
LYNCHBURG      CLOUDY    34  28  79 CALM      30.27R
DANVILLE       CLOUDY    37  33  85 CALM      30.28R
SOUTH BOSTON*  CLOUDY    35  32  89 CALM      30.28S
MARTINSVILLE   CLOUDY    37  33  86 CALM      30.27F
ROANOKE        CLOUDY    35  26  69 CALM      30.26R
BLACKSBURG     CLOUDY    34  31  89 CALM      30.22F
DUBLIN*        CLOUDY    37  36  98 CALM      30.20F
MARION*        CLOUDY    37  36  94 W6        30.21S FOG
HILLSVILLE*    CLOUDY    33  31  92 CALM      30.18S
RICHLANDS*     CLOUDY    33  30  90 CALM      30.19S
WISE*          CLEAR     32  32 100 CALM      30.20S
ABINGDON*      CLOUDY    39  37  94 CALM      30.20F FOG
$$

MDZ021>025-VAZ099-100-210900-
SOUTHERN MARYLAND AND THE DELMARVA PENINSULA

CITY           SKY/WX    TMP DP  RH WIND       PRES   REMARKS
PATUXENT RIVER CLOUDY    32  26  78 CALM      30.30F
BAY BRIDGE APT   N/A     32  28  86 CALM      30.32R
LEONARDTOWN    CLOUDY    32  27  80 CALM      30.32R
DOVER          CLOUDY    29  26  91 W3        30.29R
GEORGETOWN     CLEAR     27  23  85 CALM      30.31S
EASTON         MOCLDY    32  31  96 CALM      30.35R
CAMBRIDGE      CLOUDY    32  30  93 CALM      30.30S
SALISBURY      CLOUDY    30  25  81 CALM      30.30F
OCEAN CITY     CLOUDY    30  26  85 NW3       30.30S
WALLOPS ISLAND CLOUDY    31  26  82 N3        30.30S
ACCOMACK*      CLOUDY    32  27  80 NE3       30.30R
$$

NCZ012>017-030>032-210900-
NORTH CENTRAL AND EASTERN NORTH CAROLINA

CITY           SKY/WX    TMP DP  RH WIND       PRES   REMARKS
ROANOKE RAPIDS PTSUNNY   30  28  93 CALM      30.30R
RALEIGH        CLOUDY    38  34  85 CALM      30.28S FOG
ELIZABETH CITY CLEAR     38  30  73 N7        30.29F
AHOSKIE*       MOCLDY    27  26  96 CALM      30.31R FOG
EDENTON*         N/A     31  29  89 CALM      30.29R
CURRITUCK*     NOT AVBL
KILL DEVIL HLS CLEAR     40  34  79 N5        30.26R
MANTEO         CLEAR     38  35  87 N7        30.27S
CAPE HATTERAS  CLEAR     43  37  79 NE8       30.25S
TARBORO*       CLOUDY    30  30 100 CALM      30.30S
GOLDSBORO      CLEAR     35  34  98 N1        30.26S
WASHINGTON     CLEAR     33  31  93 NE3       30.28S
GREENVILLE     CLEAR     32  32 100 CALM      30.29S FOG
NEW BERN       CLEAR     37  33  85 NE5       30.28S
WILMINGTON     CLOUDY    37  35  92 N8        30.23F
$$

VAZ048-210900-
ELSEWHERE

CITY           SKY/WX    TMP DP  RH WIND       PRES   REMARKS
HARRISBURG PA  CLOUDY    29  22  75 NW6       30.29F
BALTIMORE      CLOUDY    31  24  75 CALM      30.31R
ANNAPOLIS      CLOUDY    35  27  72 CALM      30.31R
ANDREWS AFB    CLOUDY    31  26  83 CALM      30.30R
PHILADELPHIA   CLOUDY    32  23  69 SE3       30.31S
HENDERSON NC   CLOUDY    34  33  95 CALM      30.28S FOG
GREENSBORO     CLOUDY    38  35  89 CALM      30.24F
ROCKY MOUNT    MOCLDY    34  32  92 N6        30.29S
$$

VAZ100-210900-
MARINE

STATION/POSITION TIME  TEMP    WIND        PRES    WAVE   SWELL
                       AIR SEA DIR/SP/G            HT/PER HT/PER
                 (UTC) (F)     (DEG/KT/KT) (MB)    (FT/S) (FT/S)
CAPE MAY NJ      0800   30 42   90/  1/  2 1025.8S
LEWES DE         0800   31 42  260/  2/  3 1025.9F
15NM E FENWICK I 0800   36 45              1025.6F   1/11
OCEAN-CITY-INLET 0800   32 41  350/  4/  5 1025.5F
WACHAPREAGUE VA  0800   32 39  320/  1/  2 1025.9R
THOMAS POINT MD  0800   35 41   CALM  /  1 1027.6R
GOOSES REEF MD   0800   36     VRB  8/  8  1025.3S   1
COVE POINT MD    0800   34     330/  5/  6 1026.1R
SOLOMONS ISLAND  0800      42                N/A
BISHOPS HEAD MD  0800   35 37   10/  3/  4 1025.6R
POTOMAC MD       0800   36 43  360/  6/  6 1025.2R   0
CAMBRIDGE MD     0800   31 40     CALM     1026.1R
LEWISETTA VA     0800   35 40  290/  4/  4 1026.0R
RAPPAHANNOCK LGT 0800           50/  4/  5 1026.3R
STINGRAY PT      0800   37 44  360/  6/  8 1026.3R   0
YORK RVR RNG VA  0800   38      20/  5/  6 1025.3S
YORKTOWN VA      0800   36 45   30/  4/  5 1025.7R
JAMESTOWN VA     0800   35 45   50/  2/  4   N/A     0
DOMINION TERM VA 0800   35      20/  4/  5 1025.9S
KIPTOPEKE VA     0800      48   80/  4/  5   N/A
CHES BAY BRIDGE  0800   39 45  350/  6/  8 1025.4R
CAPE HENRY VA    0800   38     360/  8/  8 1024.5R
CHESAPEAKE LGHT  0700   39     350/  9/ 10 1026.1R
WILLOUBY STN VA  0800   38     360/  6/  7 1026.2S
S CRANEY ISL VA  0800           20/  6/  7 1025.7F
CAPE HENRY BUOY  0700      49                N/A     2/10
1ST LANDING BUOY 0800   39 45   20/  6/ 10 1025.4R   1
CAPE CHARLES BUO 0800      46                N/A     1/10   2/10
64NM E OF VA BCH 0800   44 54  360/ 10/ 14 1024.5S   2/11   2/11
DUCK PIER NC     0800   41 46  360/ 12/ 13 1024.2R
44100 DUCK FRF   0800      51                N/A     2/ 5
44056 DUCK FRF   0800      45                N/A     2/ 5
OREGON INLET NC  0800   42 48  360/  7/ 10 1024.7R
HATTERAS NC      0800   45 50   20/ 14/ 16 1024.4S
DIAMOND SHLS NC  0800   49                 1024.0S   3/ 6
CAPE LOOKOUT NC  0700   44      10/ 12/ 15 1023.6F
$$



USA.gov is the U.S. government's official web portal to all federal, state and local government web resources and services.